Date String (YYYY-MM-DD hh:mm:ss) UTC,Instrument flags,absolute air pressure of the measurement (hPa),sample flow rate (lpm),inlet stack bypass flow (lpm),air temperature of the measurement (°C),ambient temperature measured by the external sensor (°C),aerosol sample conditioner tube jacket temperature (°C),OPC LED temperature (°C),internal box temperature (°C),relative humidity of the measurement (%),span deviation,mass concentration of particles derived from Lorenz-Mie calculation of OPC scattering (μg/m³),mass concentration of particles derived from Lorenz-Mie calculation of OPC scattering (μg/m³),mass concentration of particles derived from Lorenz-Mie calculation of OPC scattering (μg/m³)
DateTimeUTC,F1_M11,P_M11,Q1_M11,Q2_M11,T1_M11,T2_M11,T3_M11,T4_M11,T5_M11,U1_M11,ZSPAN_M11,X2_M11,X0_M11,X1_M11
2024-02-16 19:00:00,SystemResetWarning,0829.1,5.00,000.00,018.3,017.5,000.0,027.1,020.0,18.7,-000.2,0006.64,0009.93,0006.46
2024-02-16 19:01:00,SystemResetWarning,0829.1,5.00,000.00,018.3,017.5,000.0,027.1,020.0,18.6,-000.3,0006.67,0009.95,0006.47
2024-02-16 19:02:00,SystemResetWarning,0829.1,5.01,000.00,018.3,017.4,000.0,027.1,020.0,18.7,-000.1,0006.67,0009.93,0006.47
2024-02-16 19:03:00,SystemResetWarning,0829.1,4.99,000.00,018.3,017.4,000.0,027.1,020.0,18.8,-000.1,0006.66,0009.58,0006.46
2024-02-16 19:04:00,SystemResetWarning,0829.1,5.00,000.00,018.3,017.3,000.0,027.1,020.0,18.8,-000.0,0006.63,0009.09,0006.45
2024-02-16 19:05:00,SystemResetWarning,0829.2,5.00,000.00,018.3,017.3,000.0,027.1,020.0,18.9,0000.4,0006.65,0009.02,0006.47
2024-02-16 19:06:00,SystemResetWarning,0829.2,5.00,000.00,018.3,017.4,000.0,027.0,020.0,19.0,0000.3,0006.68,0009.07,0006.50
2024-02-16 19:07:00,SystemResetWarning,0829.1,5.01,000.00,018.3,017.6,000.0,027.1,020.1,19.0,0000.7,0006.70,0009.09,0006.50
2024-02-16 19:08:00,SystemResetWarning,0829.1,5.01,000.00,018.4,018.5,000.0,027.1,020.6,19.0,0000.9,0006.73,0009.15,0006.51
2024-02-16 19:09:00,SystemResetWarning,0829.1,4.99,000.00,018.7,019.1,000.0,027.1,020.9,18.7,0001.2,0006.74,0009.16,0006.53
2024-02-16 19:10:00,SystemResetWarning,0829.1,5.00,000.00,018.7,019.0,000.0,027.1,020.7,18.7,0001.3,0006.76,0009.18,0006.54
2024-02-16 19:11:00,SystemResetWarning,0829.1,4.99,000.00,018.7,018.8,000.0,027.0,020.5,18.7,0001.3,0006.80,0009.22,0006.56
2024-02-16 19:12:00,SystemResetWarning,0829.1,5.02,000.00,018.6,018.6,000.0,027.0,020.3,18.8,0001.5,0006.81,0009.20,0006.59
2024-02-16 19:13:00,SystemResetWarning,0829.1,5.01,000.00,018.6,018.4,000.0,027.0,020.1,19.0,0001.3,0006.82,0009.31,0006.61
2024-02-16 19:14:00,SystemResetWarning,0829.1,4.98,000.00,018.5,018.2,000.0,027.0,020.1,19.0,0001.1,0006.83,0009.34,0006.62
2024-02-16 19:15:00,SystemResetWarning,0829.1,5.01,000.00,018.5,018.1,000.0,026.9,020.0,19.0,0001.1,0006.84,0009.38,0006.62
2024-02-16 19:16:00,SystemResetWarning,0829.0,5.01,000.00,018.4,018.0,000.0,027.0,020.0,19.0,0001.4,0006.85,0009.39,0006.64
2024-02-16 19:17:00,SystemResetWarning,0829.0,5.00,000.00,018.4,017.9,000.0,027.0,020.0,19.2,0001.5,0006.84,0009.45,0006.63
2024-02-16 19:18:00,SystemResetWarning,0829.0,5.00,000.00,018.4,017.8,000.0,027.0,020.0,19.3,0001.4,0006.84,0009.46,0006.64
2024-02-16 19:19:00,SystemResetWarning,0828.9,5.00,000.00,018.4,017.7,000.0,027.0,020.0,19.4,0001.5,0006.87,0009.57,0006.67
2024-02-16 19:20:00,SystemResetWarning,0828.9,5.00,000.00,018.3,017.7,000.0,027.0,020.0,19.3,0001.3,0006.90,0009.66,0006.68
2024-02-16 19:21:00,SystemResetWarning,0829.0,4.99,000.00,018.3,017.6,000.0,027.1,020.0,19.5,0001.0,0006.93,0009.76,0006.72
2024-02-16 19:22:00,SystemResetWarning,0829.0,4.99,000.00,018.3,017.5,000.0,027.1,020.0,19.4,0000.8,0006.99,0009.89,0006.76
2024-02-16 19:23:00,SystemResetWarning,0829.0,5.00,000.00,018.3,017.5,000.0,027.1,020.0,19.4,0000.7,0007.02,0009.97,0006.78
2024-02-16 19:24:00,SystemResetWarning,0829.0,5.00,000.00,018.3,017.5,000.0,027.1,020.0,19.4,0000.9,0007.07,0010.01,0006.81
2024-02-16 19:25:00,SystemResetWarning,0828.9,5.00,000.00,018.3,017.5,000.0,027.1,020.0,19.3,0000.8,0007.12,0010.07,0006.84
2024-02-16 19:26:00,SystemResetWarning,0829.0,5.00,000.00,018.3,017.5,000.0,027.0,020.0,19.4,0000.8,0007.16,0010.14,0006.88
2024-02-16 19:27:00,SystemResetWarning,0828.9,5.00,000.00,018.3,017.5,000.0,027.1,020.1,19.4,0000.6,0007.19,0010.20,0006.90
2024-02-16 19:28:00,SystemResetWarning,0829.0,5.01,000.00,018.4,018.2,000.0,027.1,020.5,19.2,0000.4,0007.24,0010.25,0006.94
2024-02-16 19:29:00,SystemResetWarning,0828.9,4.99,000.00,018.7,019.1,000.0,027.2,021.0,19.0,0000.5,0007.26,0010.29,0006.97
2024-02-16 19:30:00,SystemResetWarning,0829.0,4.99,000.00,018.8,019.0,000.0,027.1,020.8,18.8,0000.5,0007.29,0010.33,0007.00
2024-02-16 19:31:00,SystemResetWarning,0828.8,5.01,000.00,018.7,018.8,000.0,027.1,020.5,18.8,0000.7,0007.31,0010.36,0007.02
2024-02-16 19:32:00,SystemResetWarning,0828.8,5.01,000.00,018.7,018.7,000.0,027.0,020.3,18.9,0000.9,0007.33,0010.37,0007.04
2024-02-16 19:33:00,SystemResetWarning,0828.7,4.99,000.00,018.6,018.5,000.0,027.0,020.2,19.1,0001.2,0007.31,0010.33,0007.04
2024-02-16 19:34:00,SystemResetWarning,0828.7,4.99,000.00,018.6,018.4,000.0,027.0,020.2,19.1,0001.5,0007.30,0010.30,0007.04
2024-02-16 19:35:00,SystemResetWarning,0828.8,5.00,000.00,018.6,018.2,000.0,027.0,020.2,19.0,0001.6,0007.29,0010.27,0007.03
2024-02-16 19:36:00,SystemResetWarning,0828.8,5.01,000.00,018.5,018.1,000.0,027.0,020.1,19.0,0001.7,0007.27,0010.25,0007.04
2024-02-16 19:37:00,SystemResetWarning,0828.8,5.00,000.00,018.5,018.0,000.0,027.0,020.0,19.2,0001.8,0007.27,0010.23,0007.04
2024-02-16 19:38:00,SystemResetWarning,0828.9,5.00,000.00,018.4,017.9,000.0,027.0,020.0,19.3,0001.8,0007.27,0010.23,0007.06
2024-02-16 19:39:00,SystemResetWarning,0828.9,5.01,000.00,018.4,017.9,000.0,027.0,020.0,19.3,0001.7,0007.26,0010.19,0007.05
2024-02-16 19:40:00,SystemResetWarning,0828.8,5.00,000.00,018.4,017.8,000.0,027.0,020.0,19.4,0001.6,0007.27,0010.25,0007.04
2024-02-16 19:41:00,SystemResetWarning,0828.7,5.00,000.00,018.4,017.8,000.0,027.0,020.0,19.4,0001.6,0007.26,0010.25,0007.02
2024-02-16 19:42:00,SystemResetWarning,0828.7,5.00,000.00,018.4,017.8,000.0,026.9,020.0,19.4,0001.3,0007.25,0010.23,0007.02
2024-02-16 19:43:00,SystemResetWarning,0828.7,4.99,000.00,018.4,017.8,000.0,027.0,020.0,19.4,0001.1,0007.25,0010.22,0007.02
2024-02-16 19:44:00,SystemResetWarning,0828.8,5.00,000.00,018.3,017.7,000.0,027.0,020.0,19.3,0001.1,0007.29,0010.31,0007.02
2024-02-16 19:45:00,SystemResetWarning,0828.8,5.00,000.00,018.3,017.6,000.0,027.0,020.0,19.4,0001.1,0007.30,0010.35,0007.03
2024-02-16 19:46:00,SystemResetWarning,0828.8,5.00,000.00,018.3,017.6,000.0,027.0,020.0,19.4,0001.3,0007.33,0010.39,0007.05
2024-02-16 19:47:00,SystemResetWarning,0828.8,5.01,000.00,018.3,017.6,000.0,027.0,020.0,19.6,0001.2,0007.33,0010.43,0007.05
2024-02-16 19:48:00,SystemResetWarning,0828.8,5.01,000.00,018.3,017.5,000.0,027.0,020.0,19.6,0001.3,0007.35,0010.49,0007.05
2024-02-16 19:49:00,SystemResetWarning,0828.8,5.00,000.00,018.3,017.5,000.0,027.0,020.0,19.5,0001.3,0007.37,0011.12,0007.04
2024-02-16 19:50:00,SystemResetWarning,0828.8,4.99,000.00,018.3,017.5,000.0,027.0,020.0,19.3,0001.2,0007.39,0011.36,0007.05
2024-02-16 19:51:00,SystemResetWarning,0828.8,4.99,000.00,018.3,017.5,000.0,027.0,020.0,19.2,0001.5,0007.37,0011.27,0007.04
2024-02-16 19:52:00,SystemResetWarning,0828.8,5.00,000.00,018.3,017.5,000.0,027.0,020.0,19.1,0001.5,0007.40,0011.27,0007.06
2024-02-16 19:53:00,SystemResetWarning,0828.8,5.00,000.00,018.3,017.5,000.0,027.0,020.0,19.2,0001.6,0007.39,0011.25,0007.06
2024-02-16 19:54:00,SystemResetWarning,0828.8,5.01,000.00,018.3,017.7,000.0,027.1,020.1,19.2,0001.7,0007.39,0011.68,0007.06
2024-02-16 19:55:00,SystemResetWarning,0828.9,5.00,000.00,018.5,018.5,000.0,027.1,020.6,19.1,0001.5,0007.35,0012.52,0007.05
2024-02-16 19:56:00,SystemResetWarning,0829.0,4.99,000.00,018.7,019.1,000.0,027.1,021.0,18.9,0001.5,0007.33,0012.67,0007.05
2024-02-16 19:57:00,SystemResetWarning,0828.9,4.99,000.00,018.7,019.0,000.0,027.1,020.7,18.9,0001.3,0007.32,0012.73,0007.03
2024-02-16 19:58:00,SystemResetWarning,0828.7,4.99,000.00,018.7,018.8,000.0,027.0,020.5,18.9,0001.3,0007.33,0012.73,0007.03
2024-02-16 19:59:00,SystemResetWarning,0828.8,5.01,000.00,018.7,018.6,000.0,027.0,020.3,18.9,0001.1,0007.34,0012.72,0007.04
